Location: Camp Creek
(33.9000°N, 111.8167°W)
Time: 16:48:31
(UTC-07:00)

DELTA 2 R/B (1) - Visible Passes

Search period start: 05 May 2016 00:00
Search period end: 15 May 2016 00:00
Orbit: 791 x 803 km, 39.6° (Epoch: 05 May)

Date Brightness Start Highest point End Pass type
(mag) Time Alt. Az. Time Alt. Az. Time Alt. Az.
05 May 4.2 20:25:35 10° WNW 20:30:50 45° SSW 20:34:13 21° SSE visible
06 May 4.2 19:54:45 10° WNW 20:00:05 49° SSW 20:05:09 11° SE visible
06 May 5.9 21:44:35 10° SW 21:45:45 11° SW 21:45:56 11° SW visible
07 May 5.8 21:12:57 10° WSW 21:15:02 12° SW 21:16:55 10° SSW visible
08 May 5.8 20:41:38 10° WSW 20:44:18 14° SW 20:46:59 10° SSW visible
09 May 5.8 20:10:28 10° WSW 20:13:35 15° SW 20:16:42 10° S visible
